Regional Weather Roundup
Issued by NWS

Home | Current Version | Previous Version | Graphics & Text | Print | Product List | Glossary Off
Versions: 1 2 3 4 5 6 7 8 9 10 11 12 13 14 15 16 17 18 19 20 21 22 23 24 25 26 27 28 29 30 31 32 33 34 35 36 37 38 39 40 41 42 43 44 45 46 47 48 49 50

000
ASUS43 KTOP 221359
RWRKS

WEATHER ROUNDUP FOR KANSAS
NATIONAL WEATHER SERVICE GOODLAND KS
900 AM CDT MON SEP 22 2014

NOTE:  "FAIR" INDICATES FEW OR NO CLOUDS BELOW 12,000 FEET WITH NO
SIGNIFICANT WEATHER AND/OR OBSTRUCTIONS TO VISIBILITY.

KSZ001>006-013>018-027>032-041>047-221500-
NORTHWEST KANSAS

CITY           SKY/WX    TMP DP  RH WIND       PRES   REMARKS
GOODLAND       MOSUNNY   56  43  61 S16       30.28F
HAYS           MOSUNNY   59  46  63 S9        30.32S
HILL CITY      MOSUNNY   57  46  66 S6        30.32S
RUSSELL        SUNNY     57  49  74 S9        30.32R
$$

KSZ061>065-074>080-084>089-221500-
SOUTHWEST KANSAS

CITY           SKY/WX    TMP DP  RH WIND       PRES   REMARKS
DODGE CITY     SUNNY     58  43  57 SE13      30.33S
ELKHART          N/A     61  46  57 SE14        N/A
GARDEN CITY    SUNNY     57  42  57 SE12      30.31S
GREAT BEND     MOSUNNY   57  46  67 SE7       30.33S
LIBERAL        SUNNY     59  43  55 SE8       30.33S
PRATT          SUNNY     57  45  62 S5        30.34R
$$

KSZ066>073-081>083-090>101-221500-
SOUTHEAST KANSAS

CITY           SKY/WX    TMP DP  RH WIND       PRES   REMARKS
CHANUTE        SUNNY     60  52  74 NE3       30.32S
COFFEYVILLE    SUNNY     59  53  80 NE5       30.31R
HUTCHINSON     SUNNY     59  51  75 SE5       30.33S
NEWTON         SUNNY     59  46  63 SE7       30.35R
PARSONS        SUNNY     60  54  80 CALM      30.33R
WICHITA INTL   MOSUNNY   63  48  58 SE5       30.32S
WICHITA JABRA  MOSUNNY   58  49  72 CALM      30.32S
WINFIELD       SUNNY     58  50  75 E5        30.33S
$$

KSZ007>012-019>026-033>040-048>060-102>105-221500-
NORTHEAST KANSAS

CITY           SKY/WX    TMP DP  RH WIND       PRES   REMARKS
CONCORDIA      SUNNY     55  50  83 CALM      30.32S
EMPORIA        SUNNY     57  51  80 E5        30.32S
LAWRENCE       SUNNY     55  51  86 CALM      30.33R
MANHATTAN      SUNNY     54  49  83 CALM      30.33R
OLATHE IND     SUNNY     57  53  86 N3        30.33R
OLATHE EXE     SUNNY     59  51  75 NE5       30.32R
SALINA         SUNNY     56  49  77 CALM      30.34R
TOPEKA BILLARD SUNNY     57  52  83 CALM      30.33S
TOPEKA FORBES  SUNNY     57  52  83 CALM      30.32S
$$


USA.gov is the U.S. government's official web portal to all federal, state and local government web resources and services.